Regional Weather Roundup
Issued by NWS Wilmington, NC

Home | Current Version | Previous Version | Text Only | Print | Product List | Glossary On
Versions: 1 2 3 4 5 6 7 8 9 10 11 12 13 14 15 16 17 18 19 20 21 22 23 24 25 26 27 28 29 30 31 32 33 34 35 36 37 38 39 40 41 42 43 44 45 46 47 48 49 50
000
ASUS42 KILM 051312
RWRILM
RWRILM
REGIONAL HOURLY WEATHER ROUNDUP
NATIONAL WEATHER SERVICE WILMINGTON NC
800 AM EST MON DEC 05 2016

NOTE: "FAIR" INDICATES FEW OR NO CLOUDS BELOW 12,000 FEET WITH NO
SIGNIFICANT WEATHER AND/OR OBSTRUCTIONS TO VISIBILITY.

...............WFO WILMINGTON COUNTY WARNING AREA...............

......COASTAL NC AND SC COUNTIES......

CITY           SKY/WX    TMP DP  RH WIND       PRES   REMARKS
WILMINGTON     CLOUDY    52  52 100 NW10      29.98R
N MYRTLE BEACH LGT RAIN  51  51 100 N9        29.98R FOG
MYRTLE BEACH   RAIN      52  48  87 N15       30.00R FOG

......INLAND NC AND SC COUNTIES.......

CITY           SKY/WX    TMP DP  RH WIND       PRES   REMARKS
LUMBERTON      CLOUDY    45  45 100 N6        30.02R
ELIZABETHTOWN  DRIZZLE   45  45 100 CALM      30.01R
WHITEVILLE     CLOUDY    47  46  96 CALM      29.99R
FLORENCE       CLOUDY    46  45  96 N10       30.02R
DARLINGTON     CLOUDY    45  43  93 NE3       30.02R
KINGSTREE      RAIN      45  43  93 CALM      30.00F
HARTSVILLE     CLOUDY    43  43 100 CALM      30.01R
BENNETTSVILLE  CLOUDY    46  45  93 CALM      30.01F
CONWAY         LGT RAIN  46  46 100 CALM      29.99F
GEORGETOWN     NOT AVBL
MARION         DRIZZLE   45  43  93 N6        30.02R

....................REST OF NORTH CAROLINA......................

.........EASTERN NC.........

CITY           SKY/WX    TMP DP  RH WIND       PRES   REMARKS
CAPE HATTERAS  CLOUDY    59  58  96 NW7       29.90R
JACKSONVILLE   CLOUDY    47  46  97 NW5       29.99R
MOREHEAD CITY  LGT RAIN  60  59  96 NW7       29.94R FOG
KENANSVILLE    CLOUDY    45  45 100 NW7       30.01R
NEW BERN       LGT RAIN  48  47  96 N9        29.98R
ELIZABETH CITY CLOUDY    47  46  97 N13       29.96F

.........CENTRAL NC.........

CITY           SKY/WX    TMP DP  RH WIND       PRES   REMARKS
RALEIGH DURHAM MOCLDY    43  41  93 CALM      30.00R FOG
ROCKY MOUNT    CLOUDY    44  44 100 N3        30.00R
ROANOKE RAPIDS NOT AVBL
FAYETTEVILLE   CLOUDY    45  44  97 N3        30.01R
HOFFMAN        CLOUDY    45  43  93 CALM      30.02R

.........WESTERN NC.........

CITY           SKY/WX    TMP DP  RH WIND       PRES   REMARKS
CHARLOTTE      CLOUDY    43  41  93 CALM      30.01S
GREENSBORO     CLOUDY    42  41  96 CALM      29.99R
HICKORY        NOT AVBL
BOONE          NOT AVBL
ASHEVILLE      NOT AVBL

.....................REST OF SOUTH CAROLINA.....................

.........EASTERN SC.........

CITY           SKY/WX    TMP DP  RH WIND       PRES   REMARKS
CHARLESTON     CLOUDY    54  52  93 N13       29.98R FOG
BEAUFORT MCAS  CLOUDY    56  54  93 N13       29.96R FOG
HILTON HEAD    NOT AVBL

.........CENTRAL SC.........

CITY           SKY/WX    TMP DP  RH WIND       PRES   REMARKS
COLUMBIA       CLOUDY    46  43  89 SE3       30.02S
ORANGEBURG     RAIN      46  45  96 NE3       30.01R FOG
SUMTER SHAW    CLOUDY    45  43  93 N7        30.01R

.........WESTERN SC.........

CITY           SKY/WX    TMP DP  RH WIND       PRES   REMARKS
GREENVILLE     NOT AVBL
ROCK HILL      CLOUDY    43  42  97 CALM      30.02S FOG
ANDERSON       CLOUDY    45  42  89 NE3       29.99S
CLEMSON        NOT AVBL
GREENWOOD      CLOUDY    43  41  93 S3        30.02S


...................COASTAL AND OFFSHORE REPORTS..................

................LOCAL PIERS AND NC RESERVE................


STATION/POSITION TIME  SKY/WX   TEMP    WIND        PRES    VSBY
                                AIR SEA DIR/SP/G
                 (UTC)          (F)     (DEG/KT/KT) (MB)    (MI)
JOHNY MRCER PIER 1242            55 62  320/ 12/ 15 1013.1R
NC RESRV MASNBRO 1145            57     290/  2     1013.0
OCEAN CREST PIER NOT AVBL
SPRINGMAID  PIER NOT AVBL


................COASTAL AND OFFSHORE BUOYS................


STATION/POSITION TIME  SKY/WX   TEMP    WIND        PRES    VSBY
                                AIR SEA DIR/SP/G
                 (UTC)          (F)     (DEG/KT/KT) (MB)    (MI)
DIMNDSHOAL 41025 1150            71 74  210/ 25/ 31 1011.7
WVE H/P(F/S)=  6/ 6 SWL H/P/D(F/S/D)=  2/ 70/ 8

CAPE LOOKOUT     1200            62     280/ 13/ 16 1012.7R
ONSLOW BAY 41036 NOT AVBL
ONSLOW BAY 41064 1208            60 72  310/ 19/ 29 1013.1R
ONSLOW BAY 41159 NOT AVBL
5SE WRITBC 41038 1208            55 63  310/ 14/ 21 1013.7R
MASNBO INL 41110 1259               63                N/A
WVE H/P(F/S)=  5/ 7

WILM HARBR 41108 1256               62                N/A
WVE H/P(F/S)=  7/ 7

27SE WRITB 41037 1208            62 67  310/ 17/ 23 1012.1R
FRYING PAN 41013 1243                                 N/A
WVE H/P(F/S)=  8/ 7

SUNST NRSH 41024 1208            56 60  330/  8/ 14 1012.3R
CAPRS NRSH 41029 1208            63 62  250/  6/ 10 1013.7F
EDISTO     41004 1150            74 74  220/ 21/ 25 1013.3
WVE H/P(F/S)=  6/ 6 SWL H/P/D(F/S/D)=  2/250/13



..........OFFSHORE BUOYS BEYOND 100 NM OFFSHORE...........
.....IN A TRIANGLE---HAT TO BERMUDA TO BAHAMAS TO HAT.....


STATION/POSITION TIME  SKY/WX   TEMP    WIND        PRES    VSBY
                                AIR SEA DIR/SP/G
                 (UTC)          (F)     (DEG/KT/KT) (MB)    (MI)
150E HAT   41001 NOT AVBL
W BERMUDA  41048 1150            66 73  340/  4/  8 1020.0
WVE H/P(F/S)=  8/10 SWL H/P/D(F/S/D)=  8/ 20/10

ATLANTIC S 41049 1150            71 76  360/ 17/ 21 1018.7
WVE H/P(F/S)=  9/11 SWL H/P/D(F/S/D)=  7/340/11

E BAHAMAS  41046 1240            74 78   60/ 12/ 16 1019.3R
NE BAHAMAS 41047 1250            72     110/  8/ 12 1021.0R
WVE H/P(F/S)=  5/10 SWL H/P/D(F/S/D)=  5/ 30/10

120E CANVRL41010 NOT AVBL

END



USA.gov is the U.S. government's official web portal to all federal, state and local government web resources and services.